Regional Weather Roundup
Issued by NWS

Home | Current Version | Previous Version | Graphics & Text | Print | Product List | Glossary On
Versions: 1 2 3 4 5 6 7 8 9 10 11 12 13 14 15 16 17 18 19 20 21 22 23 24 25 26 27 28 29 30 31 32 33 34 35 36 37 38 39 40 41 42 43 44 45 46 47 48 49 50
000
ASUS45 KTFX 290819
RWRMT
MONTANA HOURLY WEATHER ROUNDUP
NATIONAL WEATHER SERVICE GREAT FALLS MT
119 AM MST MON DEC 29 2014

NOTE: "FAIR" INDICATES FEW OR NO CLOUDS BELOW 12000 FEET WITH NO
SIGNIFICANT WEATHER AND/OR OBSTRUCTIONS TO VISIBILITY.

* THESE STATIONS ARE NOT UNDER NWS QUALITY CONTROL. THEY DO NOT
   REPORT WEATHER SUCH AS PRECIPITATION OR FOG.

MTZ001>007-043-290900-
WEST OF THE DIVIDE
CITY           SKY/WX    TMP DP  RH WIND       PRES   REMARKS
KALISPELL      CLOUDY    18   5  57 NE23G32   30.35R WCI   1
MISSOULA       CLOUDY    16   7  67 SE18      30.29R
BUTTE          LGT SNOW   5   0  80 W5        30.15R WCI  -5
MULLAN PASS    SNOW      12   7  80 VRB3      30.00R VSB 1/2
* ESSEX        N/A        9   5  84 S1         N/A
* HAMILTON APT MOCLDY    18   9  68 N10       30.19R WCI   6
* LINCOLN      N/A        7  -2  66 NE15G23    N/A   WCI -10
* LOOKOUT PASS N/A       16  14  92 SW5        N/A   WCI   8
* POLSON       N/A       15   9  77 NE4        N/A
* RONAN APT    MOCLDY    18  12  77 E14G20     N/A   WCI   4
* SEELEY LAKE  N/A        7   3  83 N/A        N/A
* THOMP F APT  CLOUDY    10   6  84 N1         N/A
* YAAK HILL    N/A       21  10  62 SE1G6      N/A
$$

MTZ008-052>055-290900-
SOUTHWEST MONTANA
CITY           SKY/WX    TMP DP  RH WIND       PRES   REMARKS
BOZEMAN        LGT SNOW  10   3  73 N7        30.22R WCI  -1
DILLON         LGT SNOW  10   5  80 NE20      30.11R VSB 3    WCI  -9
* W YELLOWSTON PTCLDY     8   4  84 N/A        N/A
* THREE FORKS  MOCLDY    12  12 100 N7         N/A   WCI   1
* BOULDER HILL N/A        3  -2  79 N18        N/A   WCI -17
* MONIDA PASS  N/A        6   4  91 N6         N/A   WCI  -5
* RAYNOLDS PAS N/A        3 -38  12 N12        N/A   WCI -14
* WHITEHALL    N/A       11   2  67 NE11G18    N/A   WCI  -3
* WISE RIVER   N/A        9  -1  63 E15G21     N/A   WCI  -8
$$

MTZ009>010-012-014-046-048-049-054-290900-
EAST SLOPES AND CENTRAL MONTANA
CITY           SKY/WX    TMP DP  RH WIND       PRES   REMARKS
CUT BANK       LGT SNOW   3   0  87 N20       30.46R VSB 3/4  WCI -18
GREAT FALLS    LGT SNOW   3   1  91 N10       30.42R VSB 2 1/2 WCI -12
HELENA         CLOUDY    10   1  67 NW13      30.34R WCI  -5
MALMSTROM AFB  LGT SNOW   5   1  83 N8        30.46R VSB 3    WCI  -8
* CONRAD       CLOUDY     5   0  80 NW13       N/A   WCI -12
* DEARBORN     N/A        9   2  73 N/A        N/A
* EAST GLACIER N/A        3  -2  79 E14        N/A   WCI -15
* MONARCH      N/A        0  -5  79 W6         N/A   WCI -12
* PENDROY      N/A        3   1  91 VRB19G24    N/A   WCI -18
* SWEET GRASS  N/A        2  -2  83 N/A        N/A
* WHITE SULPH  N/A        4  -1  79 NW11       N/A   WCI -12
$$

MTZ011-013-016-021-035-040-045-047-050-051-290900-
NORTH CENTRAL MONTANA
CITY           SKY/WX    TMP DP  RH WIND       PRES   REMARKS
HAVRE          CLOUDY     9   1  70 NE8       30.53R WCI  -3
LEWISTOWN      LGT SNOW   9   3  76 NW5       30.34R VSB 1 1/4
* N BAR RANCH  HAZE       5   0  80 N5        30.31R WCI  -5
* CHINOOK      CLOUDY     9   0  66 NE3       30.56R
* CHESTER      N/A        7  -1  69 NE13G19    N/A   WCI  -9
* DENTON       N/A        8   4  84 NW13       N/A   WCI  -8
* GEYSER       N/A        5   1  83 W15        N/A   WCI -13
* JUDITH GAP   N/A        4   3  96 N19        N/A   WCI -16
* LOMA         N/A        9   4  80 N12G18     N/A   WCI  -6
$$

MTZ017>020-022>027-061-062-290900-
NORTHEAST MONTANA
CITY           SKY/WX    TMP DP  RH WIND       PRES   REMARKS
GLASGOW        CLOUDY     1  -8  65 NE10      30.54R WCI -15
GLENDIVE       CLOUDY     3  -2  79 NE14      30.45R WCI -15
JORDAN         CLOUDY     7   0  73 NE10      30.46R WCI  -7
SIDNEY         PTCLDY    -6  -9  87 NW9       30.57R WCI -22
WOLF POINT     PTCLDY    -2  -9  72 E6        30.58R WCI -14
* BEAVER HILL  N/A        2  -4  76 VRB15      N/A   WCI -17
* CIRCLE       N/A        3  -2  79 NE10       N/A   WCI -12
* LINDSAY DVD  N/A        0  -4  83 NW14       N/A   WCI -19
* NAVAJO       N/A      -12 -16  82 NW11       N/A   WCI -32
* PLENTYWOOD A CLEAR    -15 -18  86 NW10      30.54R WCI -35
* POPLAR APT   PTCLDY    -6 -11  78 N/A       30.58R
* SACO         N/A       -1  -7  75 VRB12G17    N/A   WCI -19
$$

MTZ028>042-056>058-290900-
SOUTHCENTRAL AND SOUTHEAST MONTANA
CITY           SKY/WX    TMP DP  RH WIND       PRES   REMARKS
BAKER          LGT SNOW   7   1  76 NE8       30.35R WCI  -6
BILLINGS       LGT SNOW  10   9  96 N10       30.34R VSB 2    WCI  -4
LIVINGSTON     LGT SNOW  12   7  80 E16       30.22R VSB 2 1/2 WCI  -5
MILES CITY     LGT SNOW   9   3  76 NE14      30.40R VSB 3    WCI  -7
* BIG TIMBER A CLOUDY    10   7  88 NE8       30.28R VSB 1 1/2 WCI  -2
* FORSYTH APT  MOCLDY     7   3  83 N13       30.41R VSB 2 1/2 WCI  -9
* LAUREL APT   MOCLDY    12   3  67 N5         N/A   WCI   4
* ROUNDUP APT  MOCLDY     9   1  70 N10G15     N/A   WCI  -5
* ALZADA       N/A       14  11  88 NE9        N/A   WCI   2
* HYSHAM       N/A        6   2  83 NE7G15     N/A   WCI  -6
* REED POINT   N/A       14  11  88 E7         N/A   WCI   4
* ROSCOE HILL  N/A        9   4  80 NW2        N/A
$$

REGIONAL REPORTS...DAKOTAS
CITY           SKY/WX    TMP DP  RH WIND       PRES   REMARKS
WILLISTON      PTCLDY    -8 -15  71 N10       30.55R WCI -26
DICKINSON      CLOUDY     1  -2  87 NE13      30.38R WCI -17
BEACH          CLOUDY     3   0  87 N10       30.41R WCI -12
CROSBY         CLEAR    -11 -17  74 NW12      30.57R WCI -31
WATFORD CITY   CLEAR     -9 -13  82 NE6       30.50R WCI -23
BISMARCK       CLOUDY     1  -6  72 NE6       30.51R WCI -11
GRAND FORKS    PTCLDY    -9 -15  74 N8        30.58R WCI -25
FARGO          PTCLDY    -6 -11  78 NW8       30.55R WCI -21
BUFFALO SD     PTCLDY     7   1  76 NE14      30.22R WCI -10
RAPID CITY     LGT SNOW  12  10  92 NE12      30.23R VSB 1 3/4 WCI  -2
$$

REGIONAL REPORTS...WYOMING/IDAHO/WASHINGTON
CITY           SKY/WX    TMP DP  RH WIND       PRES   REMARKS
GILLETTE       LGT SNOW  16  12  84 N15       30.12R VSB 1 1/2 WCI   1
SHERIDAN       LGT SNOW  12   7  80 NW12      30.25R VSB 3    WCI  -2
CODY           CLOUDY    10   7  88 N14       30.15R WCI  -6
YELLOWSTONE LA MOCLDY     9   5  84 CALM      29.94F
SALMON         CLOUDY    19  18  96 CALM      30.06S VSB 1 3/4
MULLAN PASS    SNOW      12   7  80 VRB3      30.00S VSB 1/2
SAND POINT     HAZE      23  16  74 NE24G32   30.28R WCI   7
SPOKANE        LGT SNOW  28  25  89 NE9       30.14S VSB 3    WCI  19
$$

REGIONAL REPORTS...ALBERTA
CITY           SKY/WX    TMP DP  RH WIND       PRES   REMARKS
CALGARY        LGT SNOW   5   0  80 N12       30.58R WCI -11
LETHBRIDGE     LGT SNOW   7   3  83 N5        30.59R WCI  -2
MEDICINE HAT   CLOUDY     3   0  87 N6        30.64R WCI  -8
EDMONTON       LGT SNOW   3  -2  79 N14G22    30.74R WCI -15
WATERTON GATE  N/A        5   1  83 N5         N/A   WCI  -5
CARDSTON       N/A        3   1  91 N6         N/A   WCI  -8
MILK RIVER     N/A        3   0  87 N15        N/A   WCI -16
$$

REGIONAL REPORTS...SASKATCHEWAN
CITY           SKY/WX    TMP DP  RH WIND       PRES   REMARKS
SWIFT CURRENT  CLEAR    -17 -22  77 W8        30.56R WCI -35
REGINA         N/A      -18 -22  81 NW12      30.61R WCI -40
VAL MARIE      N/A       -9 -13  82 N7         N/A   WCI -24
ASSINIBOIA     N/A      -13 -18  78 NW7        N/A   WCI -29

$$




USA.gov is the U.S. government's official web portal to all federal, state and local government web resources and services.